Сакарчаге

Туркменистан     37°39′48″N   61°39′18″E
темп.,
°C
ветер,
м/с
пор.,
м/с
влажн.,
%
обл.,
%
осадки,
мм/ч
давл.,
гПа
погр.,
м
14 апреля, ср
ср1423:00+20св461760 0.0 101887
02:00+18св461629 0.0 101683
05:00+17св33170 0.0 101631
08:00+19св23170 0.0 1017109
11:00+24с33130 0.0 10171251
14:00+26ссз45130 0.0 10151945
17:00+25с55140 0.0 10141960
20:00+21ссв47195 0.0 1014148
15 апреля, чт
чт1523:00+19св46221 0.0 1015103
02:00+17всв45286 0.0 101573
05:00+16в343295 0.0 101548
08:00+17вюв35317 0.0 1016189
11:00+23в33196 0.0 1016921
14:00+26св321552 0.0 10141663
17:00+27ссв541398 0.0 10131763
20:00+22св331897 0.0 101430
16 апреля, пт
пт1623:00+22всв3319100 0.0 101529
02:00+20в3322100 0.0 101330
05:00+18вюв23260 0.0 101412
08:00+20юв23250 0.0 1015102
11:00+25вюв33170 0.0 10161592
14:00+28всв33125 0.0 10142156
17:00+28всв4412100 0.0 10132251
20:00+24всв34160 0.0 101339
17 апреля, сб
сб1723:00+22всв33183 0.0 101325
02:00+20всв3320100 0.0 101435
05:00+19в3322100 0.0 101435
08:00+20с3623100 0.0 1016183
11:00+25ссв6619100 0.0 10171353
14:00+27с7518100 0.0 10172729
17:00+26ссз33195 0.0 10172424
20:00+23з33254 0.0 101734
18 апреля, вс
вс1823:00+21з22285 0.0 101811
02:00+20ссз223179 0.0 101814
05:00+18ююв333146 0.0 101836
08:00+20ю462878 0.0 1020184
11:00+26ю4419100 0.0 10191161
14:00+27ю33195 0.0 10172505
17:00+28ю22170 0.0 10152656
20:00+24ююв222169 0.0 101515